Terug naar catalogus

STARLINK-34852

ActiefCommunicatieVLEO
NORAD 66135·PAYLOAD·🇺🇸 United States

Gelanceerd Oct 22, 2025 vanaf Vandenberg Space Force Base

Loading…

Volgende Passages (komende 24 uur)

TLE

VersSource: CelesTrak SupGP

Epoch: Sep 14, 2026, 20:52 UTC

1 66135C 25237X   26257.86993056 -.00003137  00000+0 -92729-4 0  2573
2 66135  53.1585 239.7754 0001304  88.1991 165.6028 15.34379447    17

Volg STARLINK-34852 in realtime met AllMySat

Download on the App Store